Regional Weather Roundup
Issued by NWS

Home | Current Version | Previous Version | Graphics & Text | Print | Product List | Glossary On
Versions: 1 2 3 4 5 6 7 8 9 10 11 12 13 14 15 16 17 18 19 20 21 22 23 24 25 26 27 28 29 30 31 32 33 34 35 36 37 38 39 40 41 42 43 44 45 46 47 48
000
ASUS45 KTFX 301710
RWRMT
MONTANA REGIONAL WEATHER ROUNDUP
NATIONAL WEATHER SERVICE GREAT FALLS MT
1100 AM MDT THU JUL 30 2015

NOTE: "FAIR" INDICATES FEW OR NO CLOUDS BELOW 12000 FEET WITH NO
SIGNIFICANT WEATHER AND/OR OBSTRUCTIONS TO VISIBILITY.

MTZ001>007-043-301800-
WEST OF THE DIVIDE

CITY           SKY/WX    TMP DP  RH WIND       PRES   REMARKS
KALISPELL      SUNNY     74  41  30 SE6       30.25F
MISSOULA         N/A    N/A N/A N/A MISG      30.30F
BUTTE          SUNNY     70  39  32 N6        30.40F
MULLAN PASS    SUNNY     66  36  32 VRB3      30.40S
DEER LODGE       N/A     70  41  35 CALM      30.39F
EUREKA           N/A     70  41  35 CALM      30.25F
HAMILTON         N/A     70  37  30 E3        30.30F
LIBBY            N/A     70  39  32 CALM      30.24F
$$

MTZ008-052>055-301800-
SOUTHWEST MONTANA

CITY           SKY/WX    TMP DP  RH WIND       PRES   REMARKS
BOZEMAN        SUNNY     72  45  37 CALM      30.35F
DILLON         SUNNY     69  45  41 VRB3      30.38F
W YELLOWSTONE  SUNNY     63  39  42 CALM      30.48F
$$

MTZ009-010-012-014-046-048-049-054-301800-
EAST SLOPES AND CENTRAL MONTANA

CITY           SKY/WX    TMP DP  RH WIND       PRES   REMARKS
CUT BANK       SUNNY     78  36  21 VRB7      30.26F
GREAT FALLS    SUNNY     77  42  28 S8        30.28F
MALMSTROM AFB  SUNNY     77  41  27 W6        30.28F
HELENA         SUNNY     70  44  39 CALM      30.31F
$$

MTZ011-013-016-021-045-047-050-051-301800-
NORTH CENTRAL MONTANA

CITY           SKY/WX    TMP DP  RH WIND       PRES   REMARKS
HAVRE          SUNNY     74  50  42 SW6       30.24S
LEWISTOWN      SUNNY     76  41  28 VRB3      30.31F
CHINOOK          N/A     73  54  49 SW3       30.23S
FORT BENTON      N/A     79  45  29 W5        30.26S
$$

MTZ017>020-022>027-061-062-301800-
NORTHEAST MONTANA

CITY           SKY/WX    TMP DP  RH WIND       PRES   REMARKS
GLASGOW        SUNNY     76  51  41 NW8       30.22S
JORDAN           N/A     80  44  27 NE6       30.22S
SIDNEY         SUNNY    N/A N/A N/A N6        30.18S
WOLF POINT     SUNNY     81  49  32 VRB3      30.20S
PLENTYWOOD       N/A     73  52  46 N10G18    30.20R
POPLAR           N/A     77  52  41 NW5         N/A
$$

MTZ028>42-056>058-301800-
SOUTHCENTRAL AND SOUTHEAST MONTANA

CITY           SKY/WX    TMP DP  RH WIND       PRES   REMARKS
BAKER          SUNNY     80  42  25 W14       30.24S
BILLINGS       SUNNY     75  44  33 SW8       30.30S
LIVINGSTON     SUNNY     76  40  27 NW10      30.33F
MILES CITY     SUNNY     81  45  28 SW6       30.22S
FORSYTH          N/A     79  45  29 W3        30.23S
$$

REGIONAL REPORTS...DAKOTAS

CITY           SKY/WX    TMP DP  RH WIND       PRES   REMARKS
WILLISTON      SUNNY     78  49  35 NW13      30.19R
MINOT          SUNNY     76  52  43 W14       30.12S
DICKINSON      SUNNY     79  46  31 NW14      30.19R
BEACH          FAIR      77  43  29 N12       30.23R
CROSBY         FAIR      75  54  46 NW16G23   30.17S
BISMARCK       SUNNY     79  52  38 N13       30.15S
GRAND FORKS    MOSUNNY   79  55  43 NW17G24   30.00S
FARGO          MOSUNNY   78  57  48 W13       30.05F
BUFFALO SD       N/A     83  38  20 W10       30.17R
RAPID CITY     SUNNY     82  45  27 NW7       30.27R
$$

REGIONAL REPORTS...WYOMING/IDAHO/WASHINGTON

CITY           SKY/WX    TMP DP  RH WIND       PRES   REMARKS
SHERIDAN       SUNNY     82  37  20 N6        30.30F
BUFFALO WY     SUNNY     79  34  19 VRB3      30.37S
CODY           SUNNY     75  36  23 CALM      30.36F
YELLOWSTONE LA   N/A     61  42  49 E6        30.57S
IDAHO FALLS    SUNNY     73  45  36 NW6       30.36F
SALMON         SUNNY     66  45  45 NW3       30.33F
BOISE          SUNNY     81  34  18 SE6       30.24F
SPOKANE        SUNNY     79  44  28 VRB5      30.20S
$$

REGIONAL REPORTS...ALBERTA

CITY           SKY/WX    TMP DP  RH WIND       PRES   REMARKS
EDMONTON       MOSUNNY   68  43  40 W13       30.18S
CALGARY        MOSUNNY   70  43  37 CALM      30.25S
LETHBRIDGE     MOSUNNY   72  45  37 SE6       30.23F
MEDICINE HAT   SUNNY     73  50  43 VRB2      30.22F
WATERTON GATE    N/A     77  41  27 SW9         N/A
MILK RIVER       N/A     75  45  33 S3          N/A
ONEFOUR          N/A     73  43  33 S5          N/A
$$

REGIONAL REPORTS...SASKATCHEWAN

CITY           SKY/WX    TMP DP  RH WIND       PRES   REMARKS
SWIFT CURRENT  MOSUNNY   72  45  37 W6        30.22F
REGINA         MOSUNNY   72  52  49 NW16G23   30.16R
SASKATOON      MOSUNNY   72  46  40 NW17G28   30.13S
CYPRESS HILLS    N/A     70  46  43 W8          N/A
VAL MARIE        N/A     75  46  35 N3          N/A
ROCKGLEN         N/A     70  52  52 NW10G17     N/A
ASSINIBOIA       N/A     68  46  45 W14G21      N/A
$$


USA.gov is the U.S. government's official web portal to all federal, state and local government web resources and services.